Regional Weather Roundup
Issued by NWS

Home | Current Version | Previous Version | Text Only | Print | Product List | Glossary On
Versions: 1 2 3 4 5 6 7 8 9 10 11 12 13 14 15 16 17 18 19 20 21 22 23 24 25 26 27 28 29 30 31 32 33 34 35 36 37 38 39 40 41 42 43 44 45 46 47 48 49 50
000
ASUS43 KDTX 240710
RWRMI
MICHIGAN HOURLY REGIONAL WEATHER ROUNDUP
NATIONAL WEATHER SERVICE DETROIT/PONTIAC MI
300 AM EDT SUN SEP 24 2017

NOTE: "FAIR" INDICATES FEW OR NO CLOUDS BELOW 12,000 FEET WITH NO
SIGNIFICANT WEATHER AND/OR OBSTRUCTION TO VISIBILITY.

MIZ047>049-052>055-059>063-066>070-074>076-081>083-240800-
SOUTHEAST LOWER MICHIGAN

CITY           SKY/WX    TMP DP  RH WIND       PRES   REMARKS
ADRIAN         CLEAR     63  58  83 CALM      30.14S
ALMA           CLEAR     61  56  84 S5        30.14S
ANN ARBOR      CLEAR     59  59 100 CALM      30.13S
BAD AXE        CLEAR     64  61  89 CALM      30.14S
CARO           CLEAR     63  62  96 CALM      30.13S FOG
DETROIT CITY   CLEAR     69  63  81 N3        30.14R
DETROIT        CLEAR     70  64  81 CALM      30.14R
FLINT          CLEAR     64  61  90 S3        30.14S
GROSSE ILE     CLEAR     67  65  96 CALM      30.12R FOG
HILLSDALE      CLEAR     68  54  60 SE5       30.15S
HOWELL         CLEAR     66  62  87 CALM      30.15S

CITY           SKY/WX    TMP DP  RH WIND       PRES   REMARKS
JACKSON        CLEAR     65  59  81 CALM      30.14S
LAMBERTVILLE   CLEAR     65  63  92 CALM      30.12F FOG
LANSING        CLEAR     65  58  78 E3        30.14S
LAPEER         FAIR      62  61  96 CALM      30.15S
MASON          CLEAR     65  61  87 CALM      30.15R
MONROE         CLEAR     64  62  93 CALM      30.12S FOG
MT. CLEMENS    CLEAR     67  67 100 CALM      30.12S
PONTIAC        CLEAR     66  63  90 CALM      30.14R
PORT HOPE        N/A     74  64  71 SW6       30.10F
PORT HURON       N/A     63  61  94 CALM      30.14S FOG
TRI CITIES     CLEAR     71  64  78 SW6       30.13S
MIDLAND        FAIR      66  62  87 CALM      30.12S
TROY           CLEAR     70  60  70 CALM      30.15F
SAGINAW HB     CLEAR     68  61  77 S5        30.12S
$$
MIZ043>046-050>051-056>058-064>065-071>073-077>080-240800-
SOUTHWEST LOWER MICHIGAN

CITY           SKY/WX    TMP DP  RH WIND       PRES   REMARKS
BATTLE CREEK   CLEAR     66  61  84 CALM      30.14R
BENTON HARBOR  CLEAR     68  63  84 E5        30.09S
BIG RAPIDS     CLEAR     64  61  92 CALM      30.12S FOG
COLDWATER      CLEAR     64  63  96 E3        30.13S
FREMONT        FAIR      67  64  89 E3        30.10S
HOLLAND        CLEAR     65  62  90 E5        30.11S
GRAND RAPIDS   CLEAR     67  62  84 E3        30.12S
IONIA          FAIR      65  59  81 CALM      30.12S
KALAMAZOO      CLEAR     67  61  81 CALM      30.13R
LUDINGTON      CLEAR     64  63  98 CALM      30.09S FOG
MARSHALL       CLEAR     61  61  98 CALM      30.13S
MUSKEGON       CLEAR     67  64  90 SE5       30.10S
SOUTH HAVEN    CLEAR     71  64  79 SE3       30.10S
$$
MIZ016>042-240800-
NORTHERN LOWER MICHIGAN

CITY           SKY/WX    TMP DP  RH WIND       PRES   REMARKS
ALPENA         CLEAR     64  64 100 S6        30.11S
BELLAIRE       CLEAR     62  61  96 CALM      30.09S FOG
CADILLAC       FOG       63  60  88 CALM      30.14R VSB 3/4
CHARLEVOIX     CLEAR     68  68  99 SE3       30.12R
FRANKFORT      CLEAR     66  66 100 CALM      30.09R
GAYLORD        CLEAR     67  63  87 CALM      30.13S
GRAYLING       FOG       60  59  94 CALM      30.14S VSB 1/4
HARBOR SPRINGS CLEAR     66  64  95 CALM      30.09S
HOUGHTON LAKE  CLEAR     70  61  73 S6        30.14S
MANISTEE       CLEAR     64  63  96 E3        30.09S FOG
OSCODA         CLEAR     70  65  84 SW7       30.10F
PELLSTON       CLEAR     60  60 100 CALM      30.10R FOG
ROGERS CITY    CLEAR     70  65  85 CALM      30.11S
TRAVERSE CITY  CLEAR     69  65  86 CALM      30.08R
$$
MIZ007>008-015-240800-
EASTERN UPPER MICHIGAN

CITY           SKY/WX    TMP DP  RH WIND       PRES   REMARKS
KINROSS        CLEAR     68  64  87 SW3       30.09R
MACKINAC ISLAN CLEAR     68  65  91 SW6       30.09R
NEWBERRY       CLEAR     67  66  97 SW7       30.08R
S. S. MARIE    PTCLDY    65  63  93 CALM      30.08R
MUNISING         N/A     73  68  84 S5        30.04R
$$
MIZ004>006-011>014-085-240800-
CENTRAL UPPER MICHIGAN

CITY           SKY/WX    TMP DP  RH WIND       PRES   REMARKS
MANISTIQUE     CLEAR     65  59  81 CALM      30.06S
ESCANABA       PTCLDY    65  65 100 CALM      30.05R FOG
MENOMINEE      PTCLDY    72  66  81 SW5       30.06R
SAWYER-GWINN   PTCLDY    68  65  92 S6        30.06S
$$
MIZ001>003-009>011-084-240800-
WESTERN UPPER MICHIGAN

CITY           SKY/WX    TMP DP  RH WIND       PRES   REMARKS
IRON MOUNTAIN  PTCLDY    71  64  78 S5        30.05R
HOUGHTON       PTCLDY    68  65  90 NE6       30.01R
COPPER HARBOR    N/A     70  67  90 VRB3      29.99S
IRONWOOD       MOCLDY    75  65  70 S10G16    30.01R
$$

ABBREVIATIONS USED IN REMARKS
   TC - TEMPERATURE IN CELSIUS
  WCI - WIND CHILL INDEX
   HX - HEAT INDEX
  VSB - VISIBILITY




USA.gov is the U.S. government's official web portal to all federal, state and local government web resources and services.